This demonstration page uses our WeatherBlox Daily Observations layout. Learn more.

Hourly Observations for August 23, 2016

Temp ( °F °C ) Dew Point ( °F °C ) Humidity (%) Winds ( mph kmh ) Pressure ( in mb ) Visibility ( mi km ) Precip ( " mm )
12:54 am 00:54 Clear 71 21.7 62 16.7 73 73 S 13 20 29.94 1014 10 16.0934 0 0
1:54 am 01:54 Clear 70 21.1 62 16.7 76 76 S 12 19 29.93 1013 10 16.0934 0 0
2:54 am 02:54 Clear 69 20.6 62 16.7 78 78 S 12 19 29.91 1013 10 16.0934 0 0
3:54 am 03:54 Clear 69 20.6 62 16.7 78 78 S 10 17 29.91 1013 10 16.0934 0 0
4:54 am 04:54 Clear 69 20.6 64 17.8 84 84 S 10 17 29.9 1012 10 16.0934 0 0
5:54 am 05:54 Clear 69 20.6 65 18.3 87 87 S 10 17 29.9 1012 10 16.0934 0 0
6:54 am 06:54 Sunny 69 20.6 66 18.9 90 90 SSE 12 19 29.9 1012 10 16.0934 0 0
7:54 am 07:54 Partly Cloudy 71 21.7 67 19.4 87 87 SSE 14 22 29.89 1012 10 16.0934 0 0
8:10 am 08:10 Mostly Cloudy 72 22.2 68 20 87 87 S 17 28 29.88 1012 10 16.0934 0 0
8:41 am 08:41 Cloudy 72 22 68 20 88 88 S 21 33 29.91 1013 9 14.48406 0 0
8:54 am 08:54 Cloudy 73 22.8 69 20.6 87 87 S 16 26 29.9 1013 8 12.87472 0 0
9:20 am 09:20 Cloudy 73 23 70 21 89 89 SSE 15 24 29.85 1011 9 14.48406 0 0
9:54 am 09:54 Cloudy 76 24.4 70 21.1 82 82 S 18 30 29.88 1012 10 16.0934 0 0
10:18 am 10:18 Cloudy 75 24 70 21 83 83 S 18 30 29.85 1011 10 16.0934 0 0
10:54 am 10:54 Cloudy 77 25 71 21.7 82 82 SSE 15 24 29.88 1012 10 16.0934 0 0
11:06 am 11:06 Cloudy 77 25 72 22 83 83 SSE 16 26 29.85 1011 10 16.0934 0 0
11:24 am 11:24 Cloudy 81 27 72 22 74 74 SSE 18 30 29.85 1011 10 16.0934 0 0
11:39 am 11:39 Cloudy 80 26.7 71 21.7 74 74 S 16 26 29.83 1010 10 16.0934 0 0
11:54 am 11:54 Cloudy 81 27.2 71 21.7 72 72 SSE 18 30 29.85 1011 10 16.0934 0 0
12:54 pm 12:54 Mostly Cloudy 85 29.4 71 21.7 63 63 S 18 30 29.83 1010 10 16.0934 0 0
1:08 pm 13:08 Mostly Cloudy 84 29 72 22 66 66 S 21 33 29.8 1009 10 16.0934 0 0
1:18 pm 13:18 Mostly Cloudy 84 29 72 22 66 66 S 20 31 29.8 1009 10 16.0934 0 0
1:54 pm 13:54 Mostly Cloudy 86 30 72 22.2 63 63 S 20 31 29.82 1010 10 16.0934 0 0
2:54 pm 14:54 Mostly Cloudy 88 31.1 72 22.2 59 59 S 20 31 29.8 1009 10 16.0934 0 0
3:54 pm 15:54 Mostly Cloudy 89 31.7 72 22.2 57 57 S 23 37 29.78 1009 10 16.0934 0 0
4:54 pm 16:54 Mostly Sunny 90 32.2 72 22.2 56 56 S 21 33 29.77 1008 10 16.0934 0 0
5:54 pm 17:54 Mostly Cloudy 89 31.7 73 22.8 59 59 S 22 35 29.76 1008 10 16.0934 0 0
6:54 pm 18:54 Sunny 87 30.6 72 22.2 61 61 S 18 30 29.75 1007 10 16.0934 0 0
7:54 pm 19:54 Sunny 85 29.4 72 22.2 65 65 S 17 28 29.74 1007 10 16.0934 0 0
8:41 pm 20:41 Clear with Nearby Thunderstorms 83 28.3 72 22.2 70 70 S 17 28 29.68 1005 10 16.0934 0 0
8:54 pm 20:54 Clear 83 28.3 71 21.7 67 67 S 18 30 29.74 1007 10 16.0934 0 0
9:54 pm 21:54 Cloudy 82 27.8 71 21.7 69 69 SE 5 7 29.8 1009 10 16.0934 0 0
10:22 pm 22:22 Mostly Cloudy with Nearby Thunderstorms 81 27 72 22 74 74 SSW 5 7 29.77 1008 10 16.0934 0 0
10:40 pm 22:40 Mostly Cloudy 81 27.2 71 21.7 72 72 N 8 13 29.8 1009 10 16.0934 0 0
10:54 pm 22:54 Cloudy with Nearby Thunderstorms 71 21.7 64 17.8 79 79 NNE 28 44 29.83 1010 10 16.0934 0 0
11:01 pm 23:01 Cloudy with Nearby Thunderstorms 69 20.6 64 17.8 84 84 NE 25 41 29.85 1011 10 16.0934 0 0
11:26 pm 23:26 Cloudy with Nearby Thunderstorms 68 20 66 18.9 93 93 ENE 20 31 29.88 1012 10 16.0934 0 0
11:52 pm 23:52 Cloudy with Heavy Rain 70 21 66 19 88 88 ENE 17 28 29.91 1013 4 6.43736 0 0
11:54 pm 23:54 Cloudy with Heavy Rain 69 20.6 67 19.4 93 93 ENE 20 31 29.89 1012 4 6.43736 0.05 1.27

Powered by AerisWeather